FW1602 Weather Reports


Display with metric or nautical units.
time (UTC)temp
F
wind
direction
speed
MPH
gust
MPH
rain 1hr
in
rain 24hr
in
rain mn
in
humidity
%
barometer
mb
20260504050006 49 277 2.0 2.0 0.00 0.14 0.00 79 1019.0
20260504044505 47 279 2.0 2.0 0.00 0.16 0.00 83 1019.1
20260504043005 45 274 1.0 2.0 0.00 0.19 0.00 89 1019.3
20260504041505 42 0 0.0 0.0 0.00 0.23 0.00 93 1019.6
20260504040026 40 0 0.0 0.0 0.00 0.28 0.00 94 1019.9
20260504034526 39 301 1.0 2.0 0.00 0.32 0.00 93 1020.0
20260504033005 39 270 1.0 2.0 0.00 0.35 0.00 93 1019.9
20260504031505 39 263 1.0 2.0 0.00 0.38 0.00 93 1019.8
20260504030006 40 315 0.0 2.0 0.00 0.38 0.00 93 1019.8
20260504024505 39 315 0.0 2.0 0.00 0.39 0.00 92 1019.8
20260504023005 39 360 0.0 2.0 0.00 0.41 0.00 92 1019.8
20260504021505 40 0 0.0 0.0 0.00 0.43 0.00 91 1019.8
20260504020005 39 270 0.0 2.0 0.00 0.49 0.00 90 1019.9
20260504014505 40 315 0.0 2.0 0.00 0.52 0.00 90 1019.8
20260504013005 40 292 0.0 2.0 0.00 0.62 0.00 90 1019.8
20260504011505 40 0 0.0 0.0 0.00 0.70 0.00 89 1019.9
20260504010006 41 315 0.0 2.0 0.00 0.71 0.00 88 1019.7
20260504004526 40 270 0.0 2.0 0.00 0.73 0.00 89 1019.7
20260504003026 40 280 1.0 2.0 0.00 0.73 0.00 87 1019.6
20260504000007 41 225 1.0 2.0 0.00 0.73 0.00 88 1019.5
20260503234502 41 0 0.0 0.0 0.00 0.73 0.00 88 1019.6
20260503233022 41 315 0.0 2.0 0.00 0.73 0.00 87 1019.5
20260503231501 40 236 2.0 5.0 0.00 0.73 0.00 87 1019.7
20260503230002 41 243 1.0 2.0 0.00 0.73 0.00 86 1019.7
20260503224501 41 225 0.0 2.0 0.00 0.73 0.00 86 1019.7
20260503223023 41 272 1.0 2.0 0.00 0.73 0.00 86 1019.7
20260503221502 41 270 0.0 2.0 0.00 0.75 0.00 86 1019.7
20260503220002 42 272 2.0 5.0 0.00 0.78 0.00 84 1019.5
20260503214502 41 252 2.0 5.0 0.00 0.79 0.00 84 1019.7
20260503213002 43 255 3.0 5.0 0.00 0.79 0.00 81 1019.4
20260503211502 42 289 2.0 5.0 0.00 0.79 0.00 84 1019.5
20260503210032 43 250 2.0 5.0 0.00 0.79 0.00 81 1019.5
20260503204502 43 274 2.0 4.0 0.00 0.79 0.79 81 1019.5
20260503203002 42 267 2.0 2.0 0.00 0.79 0.79 82 1019.7
20260503201502 43 254 3.0 5.0 0.00 0.79 0.79 80 1019.6
20260503200003 43 245 3.0 5.0 0.00 0.79 0.79 80 1019.6
20260503194523 43 250 2.0 4.0 0.00 0.79 0.79 81 1019.6
20260503193002 44 258 3.0 5.0 0.00 0.79 0.79 80 1019.5
20260503191524 44 276 4.0 5.0 0.00 0.79 0.79 80 1019.3
20260503190004 45 357 5.0 6.0 0.00 0.79 0.79 78 1019.1
20260503184502 45 305 4.0 6.0 0.00 0.79 0.79 78 1019.1
20260503183002 44 311 4.0 6.0 0.00 0.79 0.79 80 1018.9
20260503181523 44 313 4.0 6.0 0.00 0.79 0.79 80 1018.7
20260503180004 44 308 4.0 5.0 0.00 0.79 0.79 81 1018.5
20260503174524 44 293 4.0 6.0 0.00 0.79 0.79 80 1018.4
20260503173003 44 297 3.0 4.0 0.00 0.79 0.79 81 1018.2
20260503171502 45 267 3.0 4.0 0.00 0.79 0.79 80 1017.9
20260503081504 42 308 3.0 5.0 0.00 0.74 0.73 95 1017.8
20260503071505 42 312 3.0 4.0 0.01 0.73 0.73 98 1017.4